Regional Weather Roundup
Issued by NWS Grand Forks, ND

Home | Current Version | Previous Version | Text Only | Print | Product List | Glossary On
Versions: 1 2 3 4 5 6 7 8 9 10 11 12 13 14 15 16 17 18 19 20 21 22 23 24 25 26 27 28 29 30 31 32 33 34 35 36 37 38 39 40 41 42 43 44 45 46 47 48 49 50
000
ASUS43 KFGF 181031
RWRFGF
PRAIRIE TO PINES  WEATHER ROUNDUP
NATIONAL WEATHER SERVICE EASTERN NORTH DAKOTA/GRAND FORKS ND
500 AM CDT WED MAY 18 2022

 **SATELLITE DATA USED TO AUGMENT SKY COVER AT AUTOMATED STATIONS**
 *****  WEATHER ACROSS EASTERN NORTH DAKOTA  *****

CITY           SKY/WX    TMP DP  RH WIND       PRES   REMARKS
GRAND FORKS    FAIR      52  49  89 S16       29.75S
GRAND FRKS AFB MOCLDY    54  52  94 S17       29.75F
GRAND FRKS NWS   N/A     52  50  93 S12       29.71F
DEVILS LAKE    FAIR      52  50  93 S12       29.74F
FARGO          MOCLDY    51  48  89 S9        29.82F
WAHPETON ARPT  CLOUDY    50  48  93 S7        29.86F
$$

 ***** WEATHER ACROSS CENTRAL AND WESTERN NORTH DAKOTA  *****

CITY           SKY/WX    TMP DP  RH WIND       PRES   REMARKS
BISMARCK       FAIR      51  48  89 W7        29.85R
MINOT          FAIR      58  46  64 W21G32    29.77R
JAMESTOWN      FAIR      52  50  93 SW14      29.79S
MINOT AFB      CLEAR     54  38  56 NW18      29.75R
GARRISON         N/A     54  42  64 W12       29.82R
WILLISTON      NOT AVBL
DICKINSON      FAIR      45  37  73 W8        29.88R
HETTINGER      FAIR      44  37  76 CALM      29.91R
$$

 *****  OTHER AIRPORT OBSERVATIONS IN OUR AREA  *****

CITY           SKY/WX    TMP DP  RH WIND       PRES   REMARKS
WALHALLA       FAIR      48  48 100 S3        29.71F
GRAFTON AIRPOR FAIR      52  52 100 S9G15     29.72F
VALLEY CITY AR PTSUNNY   50  50 100 S9        29.81S
CANDO          FAIR      52  52 100 SW16      29.73
CAVALIER APRT  PTSUNNY   50  50 100 SE3       29.71F
GWINNER        CLOUDY    50  50 100 S13       29.83F
SHEYENNE NWR     N/A     49  49 100 SE7       29.95S
ROLLA          FAIR      54  54 100 W18       29.68S
 ***** THE ABOVE OBSERVATIONS ARE NON NWS ARE NOT QUALITY
       CONTROLLED AND MAY MIS-REPORT RAIN FOR SNOW...
$$

  *****  WEATHER ACROSS NORTHERN MINNESOTA  *****

CITY           SKY/WX    TMP DP  RH WIND       PRES   REMARKS
FLAG ISLAND      N/A     45  39  81 SE6       29.82R
WARROAD        CLOUDY    48  45  87 E5        29.80F
ROSEAU           N/A     52  48  87 E6        29.78F
HALLOCK        CLOUDY    54  52  94 SE12      29.74F
THF RVR FALLS  FAIR      53  49  86 S13       29.79F
BAUDETTE       LGT RAIN  50  43  77 CALM      29.83F
WASKISH        FAIR      54  45  71 S5        29.83F
CROOKSTON      FAIR      50 N/A N/A S23       29.77R
STEPHEN NDAWN    N/A     52  50  93 MISG        N/A
GREENBUSH NDAW   N/A     52  48  87 MISG        N/A
$$
  *****  WEATHER ACROSS CENTRAL AND WEST MINNESOTA  *****

CITY           SKY/WX    TMP DP  RH WIND       PRES   REMARKS
FOSSTON          N/A     52  46  82 SW7       29.87R
BEMIDJI        MOCLDY    50  45  83 SE8       29.86S
PARK RAPIDS    FAIR      49  45  86 SE5       29.87R
ELBOW LAKE     FAIR      47  47 100 SW5       29.89R
WADENA         NOT AVBL
DETROIT LAKES  CLOUDY    52  48  87 S5        29.87S
MOORHEAD       FAIR      52  46  82 SE15      29.83F
FERGUS FALLS   CLOUDY    50  48  93 CALM      29.85S
MORRIS MN      NOT AVBL
STAPLES          N/A     48  46  93 CALM      29.88F
$$
  *****  WEATHER ELSEWHERE ACROSS MINNESOTA  *****

CITY           SKY/WX    TMP DP  RH WIND       PRES   REMARKS
DULUTH         MOCLDY    42  31  64 E7        29.90F
INTRNTL FALLS  CLOUDY    49  42  77 SE5       29.85F
ELY            MOCLDY    43  30  61 CALM      29.91F
CLOQUET        CLOUDY    39  30  70 SE3       29.90S
WHEATON        FOG       50  48  93 CALM      29.90  VSB<1/4
BRAINERD       FAIR      50  39  66 CALM      29.89S
HIBBING        CLOUDY    41  36  82 CALM      29.90S
ALEXANDRIA     FAIR      52  49  89 SE5       29.89S
SAINT CLOUD    CLOUDY    57  51  80 SE5       29.87F
MINNEAPOLIS    CLOUDY    56  52  86 E7        29.88F
$$

  *****  WEATHER ACROSS SOUTH DAKOTA  *****

CITY           SKY/WX    TMP DP  RH WIND       PRES   REMARKS
SIOUX FALLS    FAIR      50  48  93 CALM      29.86R FOG
BROOKINGS      FOG       45  45 100 N3        29.87F VSB<1/4
WATERTOWN      FOG       50  50 100 S6        29.87F VSB 1/4
HURON          CLOUDY    46  44  93 CALM      29.88S FOG
SISSETON         N/A     51  49  92 SW3       29.86S
ABERDEEN       FOG       49  48  97 S7        29.88R VSB 1/2
MITCHELL       FOG       47  46  97 CALM      29.88R VSB 1/4
PIERRE         FAIR      48  48 100 S3        29.87S FOG
MOBRIDGE       FAIR      50  47  89 E3        29.83F
RAPID CITY     FAIR      53  46  77 W9        29.94S
$$

  *****  SOME WEATHER IN NEARBY STATES *****

CITY           SKY/WX    TMP DP  RH WIND       PRES   REMARKS
GLASGOW MT     FAIR      48  45  89 N6        29.95R
GREAT FALLS MT FAIR      45  24  43 W6        30.11R
CHEYENNE WY    FAIR      48  42  80 SW7       30.11S
SCOTTSBLUFF NE FAIR      50  47  89 CALM      30.03R
OMAHA NE       CLOUDY    64  61  90 NW5       29.80S
DES MOINES IA  RAIN      59  58  96 N12       29.80S FOG
DAVENPORT IA   CLOUDY    58  47  66 SE9       29.83F
CHICAGO IL     CLOUDY    56  44  64 E6        29.94R
EAU CLAIRE WI  LGT RAIN  55  52  89 SE3       29.91S
LA CROSSE WI   CLOUDY    55  51  86 VRB3      29.89F
$$

  *****  SOME NATIONAL WEATHER *****

CITY           SKY/WX    TMP DP  RH WIND       PRES   REMARKS
LA GUARDIA NY  FAIR      57  41  55 NW14      29.95R
RALEIGH NC     FAIR      57  54  89 SW3       30.02R
ATLANTA GA     FAIR      63  53  70 CALM      30.04S
NEW ORLEANS LA FAIR      75  73  93 S3        29.98R
OKLAHOMA CITY  MOCLDY    75  63  66 SE14      29.81F
ALBUQUERQUE NM FAIR      59  10  14 SE9       30.08R
SALT LAKE CITY FAIR      57  38  48 SW3       30.13R
LOS ANGELES CA CLOUDY    59  53  80 E6        29.98F
BOISE ID       FAIR      51  32  48 S5        30.12S
SEATTLE WA     LGT RAIN  48  42  80 SW10      30.07S
$$

*** WEATHER ACROSS MANITOBA...SASKATCHEWAN AND ONTARIO ***
                ***ONTARIO***

CITY           SKY/WX    TMP DP  RH WIND       PRES   REMARKS
GERALDTON      NOT AVBL
THUNDER BAY    CLOUDY    41  37  87 NE2       29.93F
SIOUX LOOKOUT  CLOUDY    46  36  66 E6        29.87F
TORONTO        PTCLDY    43  37  81 N6        30.03S
BIG TROUT LK   CLEAR     25  25 100 NW5       29.96F WCI  19
PICKLE LAKE    CLOUDY   N/A N/A N/A E3        29.87F
DRYDEN         CLOUDY    46  41  81 NE3       29.85F
KENORA         CLOUDY    48  43  81 E8        29.83F
$$
                *** MANITOBA***

CITY           SKY/WX    TMP DP  RH WIND       PRES   REMARKS
BRANDON        CLOUDY    46  46 100 NE8       29.67F
DAUPHIN        LGT RAIN  46 N/A N/A E20G25    29.72F
ISLAND LAKE    CLEAR     32  27  80 NE7       29.95F
PILOT MOUND      N/A     52  50  93 S14         N/A
THE PAS        PTCLDY    37  30  75 NE6       29.90F
THOMPSON       CLEAR     27  23  86 NE5       30.03S WCI  21
WINNIPEG       CLOUDY    48  46  93 SE13      29.73F
LYNN LAKE      CLEAR     28  23  80 E7        30.03S WCI  21
CHURCHILL      CLOUDY    27  25  93 N17G24    30.05S WCI  14
GILLAM         PTCLDY    25  21  86 N2        30.04S
$$
                ***SASKATCHEWAN***

CITY           SKY/WX    TMP DP  RH WIND       PRES   REMARKS
ESTEVAN        CLEAR     46  43  87 W10       29.80R
KINDERSLEY     PTCLDY    39  39 100 W14       29.95R
LLOYDMINSTER   MOCLDY    36  36 100 W9        29.95S
PRINCE ALBERT  CLOUDY    46  43  87 N7        29.90R
REGINA         MOCLDY    48  46  93 W12       29.82S
YORKTON        LGT RAIN  45  43  93 N9        29.75R
N. BATTLEFORD  LGT RAIN  45  45 100 NW8       29.96R FOG
LA RONGE       MOCLDY    39  30  70 NE6       29.94R
SASKATOON      LGT RAIN  46  45  93 N13       29.88R
SWIFT CURRENT  CLOUDY    46  43  87 NW17G23   29.92R
$$
NOTE: THESE ARE AUTOMATED STATIONS WITH LIMITED QUALITY CONTROL
      "FAIR" INDICATES FEW OR NO CLOUDS BELOW 12,000 FEET WITH NO
      SIGNIFICANT WEATHER AND/OR OBSTRUCTIONS TO VISIBILITY.
      SKY/WX - SKY CONDITION AND SIGNIFICANT WEATHER.
      TMP - AIR TEMPERATURE.    DP   - DEWPOINT TEMPERATURE.
      RH  - RELATIVE HUMIDITY.  PRES - PRESSURE.
      HX  - HEAT INDEX.         WCI  - WIND CHILL INDEX.
$



USA.gov is the U.S. government's official web portal to all federal, state and local government web resources and services.